Location: Roland
(31.1349°N, 85.4372°W)
Time: 22:31:33
(UTC+00:00)

Tiros 1 - Pass Details

Date: 21 April 2021
Orbit: 630 x 664 km, 48.4° (Epoch: 13 May)

Event Time Altitude Azimuth Distance (km) Brightness Sun altitude
Rises 13:16:05 0° 225° (SW) 2,944 10.2 26.6°
Reaches altitude 10° 13:18:26 10° 224° (SW) 2,031 9.4 27.1°
Maximum altitude 13:23:06 80° 138° (SE) 651 7.8 28.1°
Drops below altitude 10° 13:27:45 10° 51° (NE) 2,018 10.5 29.1°
Sets 13:30:04 0° 51° (NE) 2,924 11.2 29.6°
